Lulu Pass Weather Station

This weather station is located at 10020ft near Lulu Pass at the head of Fisher Creek. This data can be used with temperature and precipitation data from the Fisher Creek SNOTEL site. This data can be viewed directly on datagarrison.com

Elevation
10020ft
Jump to table bottom
Date Time Temperature
deg F
RH, % Wind Speed Wind Gust Wind Direction
02/23/24 02:00 13.1 94 14 25 W - 291
02/23/24 01:00 13.5 94 13 23 W - 291
02/23/24 00:00 13.8 94 13 27 W - 286
02/22/24 23:00 14.3 94 14 25 W - 291
02/22/24 22:00 14.3 94 13 24 W - 285
02/22/24 21:00 14.8 94 12 25 W - 285
02/22/24 20:00 15.2 94 11 24 W - 279
02/22/24 19:00 15.9 95 9 22 W - 261
02/22/24 18:00 16.2 95 8 20 W - 248
02/22/24 17:00 16.8 95 8 24 W - 284
02/22/24 16:00 17.1 95 10 20 NW - 295
02/22/24 15:00 20.4 84 8 23 W - 270
02/22/24 14:00 22.4 84 9 17 SW - 241
02/22/24 13:00 19.2 92 8 17 W - 260
02/22/24 12:00 18.6 91 9 20 W - 275
02/22/24 11:00 17.9 92 11 20 W - 291
02/22/24 10:00 17.1 94 10 19 NW - 302
02/22/24 09:00 15.2 94 7 14 NW - 299
02/22/24 08:00 14.6 94 8 18 NW - 296
02/22/24 07:00 14.8 94 9 17 NW - 299
02/22/24 06:00 15.1 95 8 18 NW - 314
02/22/24 05:00 14.9 95 6 9 NW - 309
02/22/24 04:00 14.5 94 6 12 NW - 309
02/22/24 03:00 14.1 94 7 13 NW - 330
02/22/24 02:00 13.8 94 10 14 N - 343
02/22/24 01:00 15.1 94 12 17 NW - 327
02/22/24 00:00 15.0 92 10 14 NW - 323
02/21/24 23:00 16.3 89 11 15 NW - 326
02/21/24 22:00 16.8 86 11 16 NW - 337
02/21/24 21:00 17.2 89 12 14 N - 347
02/21/24 20:00 17.8 93 8 14 N - 347
02/21/24 19:00 17.1 94 6 12 N - 347
02/21/24 18:00 18.5 95 3 7 W - 285
02/21/24 17:00 21.1 95 4 10 W - 264
02/21/24 16:00 20.8 96 8 14 NW - 334
02/21/24 15:00 22.2 96 8 13 NW - 327
02/21/24 14:00 21.5 95 8 13 NW - 329
02/21/24 13:00 20.6 95 6 11 NW - 305
02/21/24 12:00 21.0 95 5 8 NW - 316
02/21/24 11:00 20.6 95 3 6 NW - 313
02/21/24 10:00 19.5 95 4 7 N - 21
02/21/24 09:00 15.6 94 3 9 N - 354
02/21/24 08:00 14.5 94 3 10 SE - 142
02/21/24 07:00 14.5 95 4 11 S - 175
02/21/24 06:00 14.5 95 8 14 NW - 323
02/21/24 05:00 15.3 95 6 12 NW - 293
02/21/24 04:00 13.4 94 9 17 SW - 212
02/21/24 03:00 15.6 95 8 17 SW - 216
02/21/24 02:00 16.4 95 5 14 W - 254
02/21/24 01:00 16.6 95 4 16 NW - 324